Temp
20 20 21 21 21 21 22 21 21 22 22 22 22 22 22 22 22 22 23 23 23 23 23 23 23 23 23 23 23 23 23 23 23 22 22 22 22 22 22 22 22 22 22 22 22 22 22 22 22 22 22 21 22 22 22 22 22 22 22 22 22 21 22 22 21 22 22 21 21 21 21 21 21 21 21 21 21 21 21 21 21 21 21 21 21
20 20 21 21 21 21 21 22 22 21 22 22 22 22 22 22 22 22 23 23 23 23 23 23 23 23 23 22 22 22 22 22 22 22 22 22 22 22 22 22 22 22 22 22 21 22 22 22 22 22 22 22 22 22 22 22 22 22 21 22 21 21 22 22 22 21 21 21 21 21 21 21 21 21 21 21 21 21 22 21 21 21 21 21 21
20 20 21 21 21 21 21 22 22 22 22 22 22 23 22 22 22 22 23 23 23 23 23 23 22 22 22 22 22 22 22 22 22 22 22 22 22 22 22 22 22 22 22 22 21 21 21 22 22 22 21 22 22 21 22 22 22 22 22 22 21 21 22 22 22 21 21 21 21 21 21 21 21 21 21 21 21 21 22 21 21 21 21 21 21
20 20 21 21 21 21 21 22 22 22 22 22 22 22 22 22 22 23 23 23 23 23 23 22 22 22 22 22 22 22 22 22 22 22 22 22 22 22 22 21 21 21 21 21 21 21 21 22 22 21 21 21 21 21 21 21 21 22 22 22 21 21 22 22 21 21 21 21 21 21 21 21 20 21 21 21 21 21 21 21 21 21 21 21 21
20 20 21 21 21 22 21 22 22 22 22 22 22 22 22 22 23 23 23 23 23 22 22 22 22 22 22 22 22 22 22 22 21 22 22 21 21 21 22 21 21 21 21 21 21 21 22 22 21 21 21 21 21 21 21 21 21 21 21 21 21 21 21 21 21 21 21 21 21 21 21 21 21 21 21 21 21 21 21 21 21 21 21 21 21
20 20 21 22 21 21 21 22 22 22 22 22 22 22 22 23 23 23 22 22 22 22 22 22 22 22 22 22 22 22 22 22 21 21 22 22 21 21 22 21 21 21 21 20 21 22 23 21 21 21 21 21 21 21 21 21 21 21 21 21 21 21 21 21 21 21 21 22 21 21 21 21 21 21 21 21 21 21 21 21 21 21 21 21 21
21 21 21 22 22 21 21 22 22 22 22 22 23 23 23 22 23 22 22 22 22 22 22 22 22 22 22 22 22 22 22 22 21 21 21 22 22 21 21 21 21 21 20 20 21 22 22 21 21 21 21 21 21 21 21 21 21 21 21 21 21 21 21 21 21 21 21 21 21 21 21 21 21 21 21 21 21 21 21 21 21 21 21 21 21
21 21 22 22 22 22 21 22 22 22 22 22 22 22 22 22 22 22 22 22 22 22 22 22 22 21 21 22 22 22 22 21 21 21 21 21 21 21 21 21 21 21 20 20 21 21 21 21 21 21 21 21 21 21 21 21 21 21 21 21 21 21 21 21 21 22 21 22 21 21 21 21 21 21 21 21 21 21 21 21 21 21 21 21 21
21 22 22 22 22 21 22 22 22 22 23 22 22 22 22 22 22 22 22 22 22 22 22 22 21 21 22 22 22 22 21 21 21 21 21 21 21 21 21 21 21 21 20 20 21 21 21 21 21 21 21 21 21 21 21 21 21 21 21 21 21 21 21 21 21 22 22 22 22 21 21 21 21 21 21 21 21 21 21 21 21 21 21 21 21
22 22 22 22 22 22 22 22 22 23 22 22 22 22 22 22 22 22 22 22 22 22 22 22 21 21 22 22 22 22 21 21 21 21 21 21 21 21 21 21 21 21 21 21 21 21 21 21 21 21 21 20 20 20 20 20 20 21 21 21 21 21 21 21 21 22 22 21 22 22 21 21 21 21 21 21 21 21 21 21 21 21 21 21 21
22 22 22 22 22 22 22 22 23 23 22 22 23 22 22 22 22 22 22 22 22 22 22 22 22 22 22 22 22 22 21 20 20 21 21 21 21 21 21 21 21 21 21 21 21 21 21 21 21 21 21 21 20 20 20 21 21 21 21 21 21 21 21 22 22 21 21 21 21 21 21 21 21 21 21 21 21 21 21 21 21 21 21 20 20
22 22 22 22 22 22 22 23 23 22 22 22 23 22 22 22 22 22 22 21 22 22 22 22 22 22 22 22 22 22 21 21 21 21 21 21 21 21 21 21 21 21 21 21 21 21 21 21 21 21 20 21 21 20 21 21 21 21 21 21 21 21 21 22 22 21 22 21 21 21 21 21 21 21 21 21 21 21 21 21 21 21 21 20 20
22 22 22 22 22 22 22 22 22 22 22 22 22 22 22 22 22 22 22 21 22 22 22 22 22 22 22 22 22 22 22 21 21 21 20 20 21 21 21 21 21 20 21 21 21 21 20 21 21 21 20 20 21 21 21 21 21 21 21 21 21 21 22 22 22 21 21 21 21 21 21 21 21 21 21 21 21 21 21 21 21 21 21 21 21
22 22 22 22 22 22 22 22 22 22 22 22 22 22 22 22 22 22 22 22 22 22 21 21 21 22 21 21 22 22 22 22 21 21 20 20 21 21 21 21 21 20 21 22 21 21 21 21 21 21 21 20 20 21 21 21 21 21 21 21 21 21 21 22 21 21 21 21 21 21 21 21 21 21 21 21 21 21 21 21 21 21 21 21 21
22 22 22 22 22 22 22 22 22 22 22 22 22 22 22 22 22 22 22 22 22 21 21 21 21 21 21 21 22 22 22 22 22 21 20 20 21 21 21 21 20 20 21 22 22 22 21 21 20 21 20 20 20 20 20 20 20 21 21 21 21 21 21 21 21 21 21 21 21 21 21 21 21 22 21 21 21 21 21 21 21 21 21 21 21
21 22 22 22 22 22 22 22 22 22 22 22 22 22 22 22 22 22 22 22 21 21 22 21 21 21 21 21 22 22 22 22 22 21 21 20 20 21 21 21 20 20 21 22 22 22 21 20 20 21 21 21 21 20 20 20 20 21 21 21 21 21 21 21 21 21 21 21 21 21 21 21 21 21 21 21 21 21 21 21 21 21 21 21 21
21 22 22 22 22 22 21 22 22 22 22 22 22 22 22 22 22 22 22 22 21 21 21 21 21 21 21 22 21 22 22 22 22 21 21 20 20 21 21 21 20 20 20 21 21 22 21 21 21 21 21 21 21 21 20 20 21 21 21 21 21 21 21 21 21 21 21 21 21 21 21 21 21 21 21 21 21 21 21 21 21 21 21 21 21
22 22 22 22 22 22 22 22 22 22 22 22 22 22 22 22 22 22 22 22 21 22 22 21 21 21 21 22 21 22 22 22 22 22 22 21 21 21 21 21 20 20 20 20 21 21 21 21 21 21 21 21 21 21 21 21 21 21 21 21 21 21 22 21 21 21 21 21 21 21 21 21 21 21 21 21 21 21 21 21 21 21 21 21 21
22 22 22 22 22 22 22 22 22 22 22 22 22 22 22 22 22 22 22 22 22 22 22 21 21 21 21 21 21 22 21 21 22 22 22 21 21 21 21 21 21 21 20 20 20 20 21 21 21 21 21 21 21 21 21 21 21 21 21 21 21 21 22 21 21 21 21 21 21 21 21 21 21 20 21 21 21 21 20 20 21 21 21 21 21
22 22 22 22 22 22 22 22 22 22 22 22 22 22 22 22 22 22 22 22 22 22 22 21 21 21 21 21 21 22 22 21 21 22 22 21 21 21 21 21 21 21 21 20 20 20 20 21 21 20 20 20 20 21 21 21 21 21 21 21 21 21 21 21 21 21 21 21 21 21 21 21 21 20 21 21 21 21 20 20 21 21 21 21 20
22 22 22 22 22 22 22 22 22 22 22 22 22 22 22 22 22 22 22 22 22 22 22 21 21 21 21 21 21 21 21 21 21 22 22 22 21 21 21 21 21 21 21 21 21 20 20 20 21 21 21 21 21 21 21 21 21 21 21 21 21 21 21 21 21 21 21 21 21 21 21 21 20 21 21 21 21 20 20 20 21 21 21 21 20
22 22 22 22 22 22 22 22 22 22 22 22 22 22 22 22 22 22 22 22 22 22 22 22 22 21 21 21 21 21 21 21 21 21 21 22 21 21 21 21 21 22 21 21 21 21 20 20 21 21 21 21 21 21 21 21 21 21 21 21 21 21 21 21 21 21 21 21 21 21 21 20 20 20 20 20 21 20 20 21 21 21 21 21 20
22 22 22 21 22 22 22 22 22 22 22 22 22 22 22 22 22 22 22 22 22 22 22 22 22 22 22 22 21 21 21 21 21 21 21 21 21 21 21 21 22 22 22 22 22 21 21 21 20 21 21 21 21 21 21 21 21 21 21 21 21 21 21 21 21 21 21 20 20 21 20 20 20 20 20 20 21 21 21 21 21 21 21 20 20
22 22 22 21 22 22 22 22 22 22 22 22 22 22 22 22 22 22 22 22 22 22 22 22 22 22 22 22 22 22 21 21 21 21 21 21 21 21 21 21 21 22 22 22 22 21 21 21 21 21 21 21 21 21 21 21 21 21 21 21 21 21 21 21 21 21 21 21 21 21 20 20 21 21 21 21 20 21 21 21 21 21 20 20 20
22 22 22 21 22 22 22 22 22 22 22 22 22 22 22 22 22 22 22 22 22 22 22 22 22 22 22 22 22 22 22 21 21 21 21 21 21 21 21 21 21 21 21 21 21 21 21 21 21 21 21 21 21 21 21 21 21 21 21 21 21 21 21 21 21 21 21 21 21 21 21 20 21 21 21 20 20 21 21 21 21 21 20 20 20
22 22 22 21 21 22 22 22 22 22 22 22 22 22 22 22 22 22 22 22 22 22 22 22 22 22 22 22 22 22 22 22 22 22 22 22 22 22 22 22 22 21 21 21 21 21 21 21 21 21 21 21 21 21 21 21 21 21 21 21 21 21 21 21 21 21 21 21 21 21 21 20 21 21 21 21 20 21 21 21 21 21 20 20 20
22 22 22 22 21 22 22 22 22 22 22 22 22 22 22 22 22 22 22 22 22 22 22 22 22 22 22 22 22 22 22 22 22 22 22 22 22 22 22 21 21 21 21 21 21 21 21 21 21 21 21 21 21 21 21 21 21 21 21 21 21 21 21 21 21 21 21 21 21 21 21 21 21 21 21 21 21 21 21 21 21 21 20 20 20
22 22 22 22 21 21 22 22 22 22 22 22 22 22 22 22 22 22 22 22 22 22 22 22 22 22 22 22 22 22 22 21 21 21 21 21 22 22 21 21 21 21 21 21 21 21 21 21 22 22 22 22 22 21 21 22 21 21 21 21 21 21 21 21 21 21 21 21 21 21 21 21 21 21 21 21 21 21 21 21 21 20 20 20 21
22 22 22 22 22 21 21 21 21 22 22 22 22 22 21 22 22 22 22 22 22 22 22 22 22 22 22 22 22 22 22 21 21 21 21 21 22 22 21 21 21 21 21 21 22 22 22 22 22 22 22 22 22 22 22 22 22 22 21 21 21 21 21 21 21 21 21 21 21 21 21 21 21 21 21 21 21 21 21 21 21 21 21 21 21
22 22 22 22 22 21 21 21 21 21 21 22 22 21 21 22 22 22 22 22 22 22 22 22 22 22 22 22 22 22 22 21 22 22 22 22 22 22 21 21 22 22 22 22 22 22 22 22 22 22 22 22 22 22 22 22 22 22 22 22 21 21 21 21 21 21 21 21 21 21 22 22 22 22 22 21 21 21 21 21 21 21 21 21 20
22 22 22 22 22 22 21 21 21 21 21 21 22 21 21 22 22 22 22 22 22 22 22 22 22 22 22 22 22 22 22 21 22 22 22 22 22 22 22 22 22 22 22 22 22 22 22 22 23 23 23 23 22 22 22 22 22 22 22 22 22 22 21 21 21 21 21 21 21 21 22 22 22 22 22 22 22 21 21 21 21 21 20 20 20
22 22 22 22 22 22 21 21 21 21 21 21 22 21 21 21 22 22 22 22 22 22 22 22 22 22 22 22 22 22 22 22 22 22 22 22 22 22 22 22 22 22 22 22 22 22 22 22 23 23 23 23 23 23 23 22 22 22 22 22 22 22 22 21 21 22 21 21 21 21 21 21 21 22 22 22 22 21 21 21 21 21 21 20 20
22 22 22 22 22 22 21 21 21 21 21 21 21 21 21 21 22 22 22 22 22 22 22 22 22 22 22 22 22 22 22 22 22 22 22 22 22 22 22 22 22 22 22 22 22 22 22 22 23 23 23 23 23 23 23 23 23 23 23 23 22 22 22 22 22 22 21 21 21 21 21 21 21 21 21 21 21 21 21 21 21 21 21 20 20
22 22 22 22 22 22 21 21 21 21 21 21 21 21 21 21 21 22 22 22 22 22 22 22 22 22 22 22 22 22 22 22 22 22 22 22 22 22 22 22 22 22 22 22 22 22 22 22 22 22 22 22 22 23 23 23 23 23 23 23 23 22 22 22 22 22 22 22 21 21 21 21 21 21 21 21 21 21 21 21 21 20 20 20 20
22 22 22 22 22 22 21 21 21 21 21 21 21 21 21 21 21 21 22 22 22 22 22 22 22 22 22 22 22 22 22 22 22 22 22 22 22 22 22 22 22 22 22 22 22 22 22 22 22 22 22 23 23 23 23 23 23 23 23 23 23 23 22 22 22 22 22 22 22 22 21 21 21 21 21 21 21 22 22 21 21 21 20 20 20
22 22 22 22 22 22 21 21 21 21 21 21 21 21 21 21 22 22 22 22 22 22 22 22 22 22 22 22 23 23 22 23 22 22 22 22 22 22 22 22 22 22 22 22 22 22 22 22 22 22 22 23 23 23 23 23 23 23 23 23 23 23 23 22 22 22 22 22 22 22 22 22 22 22 22 21 21 22 22 22 21 21 21 21 20
22 22 22 22 22 22 21 21 22 22 21 21 21 21 21 21 22 22 22 22 22 22 22 22 22 22 22 22 23 23 23 23 23 23 23 22 22 22 22 22 22 22 22 22 22 22 22 22 22 23 23 23 24 24 24 24 24 24 23 23 23 23 23 23 22 22 22 22 22 22 22 22 22 22 22 22 22 22 22 22 22 22 21 21 21
22 22 22 22 22 22 21 21 22 22 22 22 21 21 21 22 22 22 22 22 22 22 22 22 22 22 23 23 23 23 23 23 23 23 23 22 22 22 22 22 22 22 22 22 22 22 22 22 22 22 23 23 23 24 24 24 24 24 24 24 23 23 23 23 23 23 23 22 23 22 22 22 22 23 22 22 22 22 22 22 22 22 22 22 22
22 22 22 22 22 22 22 22 22 22 22 22 22 22 22 21 21 22 22 23 22 22 23 23 23 23 23 23 23 23 23 23 23 23 23 23 23 23 22 22 22 22 22 22 22 22 22 22 22 22 23 23 24 24 24 24 24 24 24 24 24 24 24 24 24 24 23 23 23 23 23 23 23 23 23 23 22 22 23 22 22 22 22 22 22
22 22 22 21 22 22 22 22 22 22 21 22 22 22 22 21 21 21 22 22 23 23 23 23 23 23 23 23 23 23 23 23 23 23 23 23 23 23 22 22 22 22 22 22 22 22 22 22 22 23 23 23 24 24 25 25 24 24 24 24 24 24 24 24 24 24 24 24 24 24 23 23 24 24 24 23 23 23 23 23 23 23 22 23 23
22 22 22 22 22 22 22 22 22 22 22 21 21 22 22 22 22 22 22 23 23 23 23 23 23 23 23 23 23 23 23 23 23 23 23 23 23 23 22 22 22 22 22 22 22 22 22 22 23 23 23 23 24 24 25 24 25 25 25 25 24 24 24 25 24 24 24 24 24 24 24 24 24 24 24 24 24 24 24 23 23 23 23 23 23
23 22 22 22 22 22 22 22 22 22 22 22 22 22 22 22 22 22 23 23 23 23 23 23 23 23 24 23 23 23 23 23 23 23 23 23 23 23 22 22 22 22 22 22 22 22 22 22 22 23 23 24 24 24 25 25 25 25 25 25 26 25 25 25 25 25 25 25 25 25 25 25 24 24 25 25 25 25 24 24 24 24 24 24 24
23 23 22 22 22 22 22 22 22 22 22 23 23 23 23 22 22 22 23 23 23 23 23 23 23 23 23 24 23 23 23 23 23 23 23 23 23 23 22 22 22 22 22 22 22 22 22 22 22 23 23 24 24 24 25 25 25 25 25 25 26 26 26 25 25 26 26 26 25 26 26 26 25 25 26 26 26 25 25 25 25 25 24 24 24
24 23 23 22 22 22 22 23 23 23 23 23 23 23 23 23 23 23 23 23 23 23 23 23 23 23 23 24 24 23 23 23 23 23 23 23 23 23 22 22 22 22 22 22 22 22 22 22 22 22 23 24 25 25 24 24 25 25 25 25 25 26 26 26 26 26 26 27 26 26 27 26 26 26 27 26 26 26 26 25 25 25 25 25 25
24 23 23 23 23 22 22 23 23 23 24 24 23 23 23 23 23 23 23 23 23 23 23 23 23 23 23 23 24 23 23 23 23 23 23 23 23 23 22 22 22 21 22 22 22 22 22 22 22 22 23 24 25 25 24 24 24 25 25 25 25 26 26 26 27 27 27 27 27 27 27 27 26 27 27 27 26 26 26 26 26 26 25 25 25
24 24 24 23 23 22 22 23 23 23 23 24 24 23 23 23 23 22 22 22 22 23 23 23 23 23 23 23 24 24 23 23 23 23 23 23 23 23 23 22 22 22 22 22 22 22 22 22 22 23 23 24 24 25 25 24 24 25 25 25 25 25 25 26 26 26 27 27 27 27 27 27 26 27 27 27 27 27 27 26 26 26 26 26 26
25 24 24 23 23 23 23 23 23 23 23 23 24 23 23 23 23 23 22 23 23 23 23 24 24 24 24 24 24 24 23 23 23 23 23 23 23 23 22 22 22 22 22 22 22 22 22 22 22 22 23 24 24 25 25 25 25 24 25 25 25 25 25 25 26 26 26 27 27 28 28 27 27 27 27 27 27 27 27 27 27 27 27 26 26
25 24 24 24 23 23 23 23 23 23 23 23 24 24 23 23 23 23 22 23 23 23 24 24 24 25 24 24 24 24 23 23 23 24 23 23 23 23 22 22 22 22 22 22 22 22 22 22 23 23 23 24 24 24 25 25 25 25 25 25 25 25 25 25 25 25 26 26 27 28 28 28 27 27 27 27 27 27 28 27 27 27 27 27 27
26 25 24 24 23 23 23 23 23 22 23 23 24 24 24 24 23 23 22 23 23 23 24 24 24 25 25 25 24 24 23 23 23 23 24 23 23 23 23 23 23 23 22 22 22 22 23 23 23 23 23 23 24 24 24 24 25 25 25 25 25 25 25 25 25 25 26 26 27 28 28 28 28 27 27 28 28 28 28 28 28 27 27 27 27
26 25 24 24 23 23 23 22 22 22 22 23 23 24 24 24 23 23 23 23 23 23 24 24 24 24 24 24 24 24 23 22 22 23 23 23 23 23 23 23 23 23 23 22 22 23 23 23 23 23 23 23 24 24 24 24 25 25 25 25 25 25 26 26 26 26 26 26 26 28 28 28 28 28 27 27 28 28 28 28 28 28 28 28 28
26 25 25 24 24 23 23 22 22 22 22 23 23 24 24 24 24 24 23 23 23 23 23 24 24 24 24 24 24 24 23 22 22 22 22 23 24 23 23 23 23 23 23 23 23 23 23 22 22 23 23 23 24 24 24 24 24 25 25 25 25 25 25 26 26 26 26 27 26 28 29 28 28 28 27 27 28 27 27 27 27 27 27 28 28
Height
824 824 826 826 828 828 829 830 831 832 833 835 835 836 837 839 840 841 842 842 843 844 844 845 845 845 845 845 845 845 846 846 847 847 848 848 848 849 849 850 850 850 850 850 851 851 851 851 851 851 851 851 851 852 852 852 852 852 852 852 853 853 853 853 854 854 855 855 856 856 857 857 858 858 858 859 860 860 861 861 861 862 862 863 863
823 825 826 827 829 829 831 832 833 834 835 835 836 837 838 840 841 843 843 844 844 845 845 845 846 846 846 846 846 847 847 847 848 848 848 849 849 849 850 850 850 850 850 851 851 851 852 852 852 852 852 852 852 853 853 853 853 854 854 854 854 854 854 854 855 855 856 856 857 858 859 860 860 860 860 861 861 862 862 862 863 864 864 865 865
823 826 827 828 829 830 832 833 834 834 835 836 837 838 839 841 843 844 844 845 845 846 846 846 847 847 847 847 847 848 848 848 848 849 849 849 849 849 850 850 850 851 851 851 851 852 852 852 852 852 853 853 853 853 853 854 855 855 855 855 856 856 856 856 856 857 857 858 858 859 860 862 862 862 861 862 863 863 863 863 864 865 866 866 866
825 826 828 829 830 832 833 834 835 835 836 837 839 840 841 843 844 845 845 846 846 847 847 847 847 847 848 848 848 848 849 849 849 849 849 849 849 850 850 850 850 851 851 851 852 853 852 851 852 853 853 853 854 854 854 855 856 856 856 856 857 857 857 857 858 858 859 859 860 861 862 863 863 863 863 864 864 864 865 865 866 866 867 867 867
827 828 829 831 832 833 835 836 836 837 838 839 841 842 843 844 845 845 846 847 847 847 847 848 848 848 848 848 849 849 849 850 850 850 850 850 850 850 850 851 850 851 851 853 854 853 851 851 852 853 853 854 855 855 855 856 857 857 857 858 858 858 858 859 859 859 860 860 861 862 864 864 864 864 864 865 866 866 866 866 867 868 868 869 869
828 829 830 832 833 835 836 837 838 839 840 841 842 843 844 844 845 846 847 847 848 848 848 848 848 849 849 849 850 850 850 850 851 851 851 851 850 851 851 851 850 851 852 854 855 852 850 853 854 853 854 855 856 856 856 857 858 858 858 859 859 859 859 860 860 861 861 861 862 863 864 865 865 865 866 867 867 867 867 868 868 869 869 870 870
828 830 831 832 834 835 837 838 839 840 840 841 842 843 844 845 846 847 848 848 848 848 848 849 849 850 850 850 850 850 851 851 852 852 852 851 851 851 851 851 850 851 854 856 856 852 852 854 854 854 855 856 856 857 857 858 858 859 859 859 860 860 860 861 861 862 862 863 864 865 866 866 866 867 868 868 869 869 869 869 870 870 871 871 871
830 831 832 834 835 836 838 838 839 840 841 842 843 845 846 846 847 848 848 849 849 849 849 849 850 850 850 851 851 851 851 852 852 852 853 852 851 851 852 851 851 853 855 857 856 853 854 856 855 855 856 857 857 858 858 858 859 860 860 860 860 861 861 862 862 863 864 864 865 866 867 868 868 868 870 870 870 870 870 871 871 872 872 872 872
831 832 833 835 836 837 838 839 840 841 842 844 845 846 847 847 848 849 849 850 850 850 850 850 850 851 851 851 851 852 852 853 853 853 853 853 853 853 853 853 853 854 856 858 856 854 855 856 856 856 857 858 858 859 860 860 861 862 861 861 861 861 862 863 864 865 865 866 867 868 868 869 870 870 871 872 872 872 872 872 873 873 873 874 873
831 833 834 835 837 838 839 840 841 842 844 845 846 847 847 848 849 850 850 851 851 851 851 850 850 850 851 851 851 852 853 854 854 854 854 854 854 854 855 855 855 855 856 858 857 855 856 857 857 858 858 859 859 860 861 861 862 863 863 863 862 863 863 865 866 867 867 868 869 869 870 870 871 872 873 873 873 873 873 874 874 875 875 875 875
832 833 835 836 838 839 840 842 842 844 845 846 847 847 848 849 850 850 851 852 853 853 852 851 850 850 851 852 852 852 854 854 854 855 855 855 854 854 856 857 858 857 857 858 858 857 857 857 858 858 859 859 860 861 862 862 863 864 864 865 864 865 865 867 867 868 869 869 870 871 871 872 873 874 874 874 874 874 875 875 876 876 876 876 876
833 834 835 837 839 840 841 842 843 845 846 847 848 848 849 850 850 851 851 853 854 854 853 852 850 849 850 852 853 853 854 855 855 855 855 856 856 856 857 859 860 860 860 859 859 859 858 859 859 859 860 861 861 862 863 863 863 864 865 866 866 866 867 868 868 869 870 871 872 872 873 873 874 875 875 875 875 876 876 877 877 877 877 877 877
833 835 836 838 839 841 842 843 844 845 846 847 848 849 850 850 851 851 852 853 854 854 854 854 852 850 850 852 853 853 854 855 856 856 856 857 857 857 858 860 861 862 862 861 862 861 860 859 859 859 860 861 863 863 864 864 865 865 866 867 867 868 868 869 870 870 871 872 873 874 874 875 875 876 876 876 877 878 878 878 878 878 878 878 878
834 836 837 839 840 842 843 844 845 846 847 848 849 849 850 851 851 852 853 854 855 855 856 856 854 851 850 852 853 853 854 855 857 857 857 858 859 859 860 861 862 863 861 861 862 863 862 861 861 861 861 863 864 865 865 865 866 866 867 868 868 869 869 870 870 871 872 873 874 875 876 876 877 877 878 878 879 879 879 879 879 879 879 879 879
835 836 838 839 840 842 843 845 846 847 848 848 849 850 851 851 852 853 854 855 855 856 857 858 856 853 852 853 854 855 855 856 857 858 858 859 860 861 862 863 865 865 863 860 860 862 863 863 864 863 863 864 865 866 866 867 867 868 868 868 869 870 870 871 872 872 873 874 875 876 877 878 878 879 879 880 880 880 880 880 880 880 880 880 880
836 837 839 840 841 843 844 845 846 847 848 849 850 850 851 852 853 854 854 855 856 857 858 858 858 856 854 854 856 857 857 857 858 859 859 860 861 863 863 865 867 869 867 865 862 861 862 864 865 865 864 865 866 867 867 869 869 869 870 870 870 871 872 872 873 874 875 876 877 878 878 879 880 881 881 881 882 882 882 881 881 881 881 881 880
836 838 839 840 842 843 844 846 847 848 848 849 850 851 852 852 853 854 855 856 856 857 858 859 859 858 856 856 857 858 858 858 859 859 860 861 862 864 865 866 868 870 871 870 867 864 863 865 867 866 866 867 867 868 868 870 870 871 872 872 872 873 873 874 875 876 877 877 878 879 880 881 882 882 882 882 882 883 883 883 882 882 882 882 881
837 838 840 841 842 844 845 846 847 848 849 850 851 851 852 853 854 854 856 856 857 858 858 860 860 860 858 857 858 859 860 860 860 860 861 862 863 864 865 866 868 870 871 872 872 869 865 865 867 868 869 869 870 870 870 871 871 872 873 873 873 874 875 875 876 877 878 879 880 881 882 883 883 883 883 883 883 884 884 884 883 883 883 883 882
838 839 840 842 843 844 845 846 848 848 850 850 852 852 853 853 854 855 856 857 858 858 859 860 861 862 861 859 858 858 861 862 862 862 862 863 864 865 866 867 868 869 871 873 874 874 870 868 868 870 871 871 872 872 872 872 873 874 875 875 874 875 876 877 878 879 880 881 882 883 884 884 884 884 884 884 884 885 885 885 885 884 884 884 883
838 839 841 843 843 845 846 847 848 849 850 851 852 853 854 854 855 856 856 857 858 859 860 861 862 864 864 863 860 859 860 863 864 864 864 865 865 866 866 867 868 869 870 872 875 876 876 874 871 871 872 872 873 874 874 875 876 876 877 876 876 877 878 879 880 881 882 882 883 884 885 885 885 885 885 885 885 886 886 886 886 885 885 885 885
839 840 841 843 844 845 846 847 848 849 850 851 853 853 854 855 855 856 857 858 859 860 860 862 863 865 866 866 864 862 862 864 865 866 867 867 868 868 868 868 869 870 871 872 874 876 878 878 876 874 873 873 875 876 877 877 877 878 878 878 878 879 880 881 881 882 883 884 884 885 885 886 886 886 886 886 886 887 887 887 886 886 886 886 886
839 840 842 843 844 846 847 848 849 850 851 852 853 854 855 855 856 856 857 858 859 860 861 862 864 865 866 867 867 866 865 865 865 866 867 868 869 870 869 869 869 871 873 873 874 876 878 879 879 878 876 876 876 877 877 877 878 878 879 879 880 880 881 882 882 883 884 885 885 886 886 887 887 887 887 887 887 888 888 887 887 887 887 887 886
839 840 842 843 845 846 847 848 849 850 851 852 853 854 855 856 856 857 857 859 860 861 862 863 864 865 866 867 868 868 868 867 867 868 868 868 870 871 871 870 869 870 871 873 874 876 878 879 880 880 879 878 877 877 877 878 879 879 880 880 881 882 882 883 884 884 885 886 886 887 887 887 888 888 888 888 889 888 888 888 888 888 887 887 887
839 841 842 844 845 846 848 848 849 851 851 853 854 855 856 856 857 857 858 859 860 861 862 863 864 865 866 867 868 868 869 869 870 871 871 872 872 873 874 874 873 871 872 874 874 875 877 878 879 880 880 880 879 879 880 880 881 881 881 882 882 883 884 884 885 885 886 887 887 888 888 888 889 889 889 889 889 889 888 888 888 888 888 888 888
839 841 843 844 845 846 848 849 850 851 852 853 854 855 856 857 857 858 859 859 861 862 863 864 864 865 866 867 868 868 869 870 871 872 873 873 874 875 876 876 877 877 879 880 878 877 878 879 880 880 880 881 881 882 882 882 883 883 883 883 884 884 885 886 886 887 887 887 888 888 889 889 889 889 889 889 889 889 889 889 889 889 889 889 889
840 841 843 844 845 847 848 849 850 851 852 854 854 856 856 857 858 859 859 860 861 862 863 864 865 866 867 867 868 869 869 870 871 872 872 873 874 875 876 878 879 880 882 883 883 881 881 881 881 881 882 882 883 883 883 884 884 884 884 885 885 886 886 887 887 887 888 888 889 889 889 889 889 889 889 889 889 889 889 889 889 889 889 889 890
840 841 842 844 845 846 848 849 850 851 853 854 855 856 857 858 858 859 860 861 861 862 863 864 866 866 867 868 868 869 870 870 871 872 872 873 874 875 876 878 879 881 882 883 883 883 883 883 883 883 883 883 884 884 884 884 885 885 885 885 886 886 887 887 888 888 889 889 889 889 889 889 889 889 889 889 889 890 889 890 890 890 890 890 890
839 841 843 844 845 847 848 849 851 852 853 854 855 856 857 858 859 860 861 861 862 863 864 865 866 867 867 868 869 869 870 871 871 872 873 873 874 875 876 878 879 880 881 882 883 883 883 883 883 883 883 884 884 884 885 885 885 886 886 886 887 887 887 888 888 889 889 890 890 889 889 889 889 889 889 889 890 890 890 890 890 890 890 890 890
839 841 842 844 846 847 848 849 851 852 853 854 856 857 858 859 859 860 861 862 863 863 864 865 867 868 868 869 869 870 871 871 872 872 873 874 875 876 877 878 879 880 881 881 882 882 883 883 883 883 883 884 884 885 885 886 886 886 887 887 887 888 888 888 889 889 890 890 890 890 890 889 889 889 889 890 890 890 890 890 891 891 891 890 890
838 840 842 844 846 847 848 850 851 852 853 855 856 857 858 859 860 861 862 863 863 864 865 866 867 868 869 870 870 871 871 872 873 873 874 874 875 876 877 878 879 879 880 881 881 882 882 882 883 883 883 884 884 885 885 886 886 887 887 888 888 888 889 889 889 890 890 891 891 890 890 890 889 889 889 890 890 890 891 891 891 891 891 890 890
838 840 842 844 846 847 848 850 851 852 853 855 856 857 858 859 860 861 862 863 864 865 865 867 868 869 869 870 871 871 872 873 873 874 874 875 875 876 877 878 878 879 880 880 881 881 882 882 882 883 883 883 884 885 885 886 886 887 887 888 888 889 889 889 890 890 891 891 891 891 890 890 890 890 890 890 890 891 891 891 891 891 891 890 890
838 840 842 844 845 847 848 850 851 852 854 855 856 857 859 860 861 862 863 864 865 865 866 867 868 869 870 871 871 872 873 873 874 874 875 876 876 876 877 878 878 879 880 880 881 881 881 882 882 883 883 884 884 885 885 886 887 887 887 888 888 889 889 890 890 891 891 891 891 891 891 890 890 890 890 890 891 891 891 891 891 890 890 890 890
838 840 842 844 845 847 848 850 851 852 854 855 856 858 859 860 861 862 863 864 865 866 867 868 869 870 870 871 872 873 873 874 874 875 875 876 876 877 878 878 879 879 880 880 881 881 882 882 883 883 884 884 885 885 886 886 887 887 888 888 889 889 890 890 891 891 891 892 891 891 891 890 890 890 890 891 891 891 891 891 890 890 890 890 890
837 840 842 843 845 846 848 850 851 852 854 855 856 858 859 860 861 862 863 864 865 867 867 868 869 870 871 872 872 873 874 875 875 876 876 877 877 877 878 879 879 880 880 881 882 882 883 883 884 884 885 885 885 886 886 887 887 887 888 888 889 889 890 890 891 891 891 891 891 891 890 890 890 891 891 891 891 891 890 890 890 890 890 890 889
836 838 841 843 845 846 847 849 850 852 853 855 856 858 859 860 861 862 863 865 866 867 868 869 870 870 871 872 873 874 874 875 876 876 877 877 878 878 879 879 880 880 881 882 882 883 883 884 884 885 885 886 886 886 886 887 887 888 888 888 889 889 890 890 890 891 891 891 891 890 890 890 890 891 891 891 891 890 890 890 890 890 889 889 889
835 837 840 842 844 845 846 848 849 851 853 855 856 858 859 860 862 863 864 865 866 867 868 869 870 871 872 872 873 874 874 875 876 876 877 878 878 879 879 880 880 881 882 882 883 884 884 884 885 885 886 886 886 886 887 887 887 888 888 888 889 889 890 890 890 891 891 891 891 890 890 890 890 891 891 891 890 890 890 889 889 889 889 888 888
834 836 838 841 843 845 846 847 848 850 852 854 856 857 859 860 861 863 864 865 866 867 868 869 870 871 872 872 873 874 874 875 876 877 877 878 879 880 880 880 881 882 882 883 883 884 885 885 885 886 886 886 887 887 887 887 887 888 888 889 889 889 890 890 890 891 891 890 891 891 891 891 891 890 890 890 890 889 889 889 889 888 888 888 888
833 835 837 840 842 844 845 846 848 850 852 853 855 857 859 860 862 863 864 865 866 867 868 869 870 871 872 872 873 874 875 875 876 877 877 878 879 880 880 881 881 882 883 883 884 884 885 885 886 886 886 886 887 887 887 887 888 888 888 889 889 889 890 890 890 890 890 890 890 891 891 891 890 890 890 890 889 889 889 889 888 888 887 887 887
832 834 837 839 841 843 844 846 847 849 852 853 855 857 858 860 862 863 864 865 866 867 868 869 870 871 872 872 873 874 875 875 876 876 877 878 879 880 880 881 881 882 883 883 884 884 885 885 886 886 886 886 887 887 887 887 888 888 889 889 889 889 890 890 890 890 890 890 890 890 890 890 890 890 889 889 889 889 888 888 888 887 887 887 887
831 833 835 838 839 842 843 845 846 849 851 853 854 856 858 860 861 863 864 865 866 867 868 869 870 871 872 873 873 874 875 875 876 876 877 878 879 880 880 881 881 882 883 883 884 884 885 885 886 886 887 887 887 887 887 888 888 888 889 889 889 889 889 889 889 889 890 889 889 889 890 890 889 889 889 889 889 888 888 888 887 887 887 887 886
830 832 834 836 838 840 842 843 845 847 850 852 853 855 856 859 860 862 863 864 865 866 867 868 869 870 871 872 873 874 875 875 876 876 877 878 879 879 880 881 881 882 883 883 884 884 885 885 886 886 887 887 887 887 888 888 888 888 888 889 889 889 889 889 889 889 889 889 889 888 889 888 888 888 888 888 888 888 887 887 887 887 887 886 886
828 830 832 834 836 838 840 842 844 846 848 850 852 853 855 857 859 861 863 864 865 866 867 868 869 870 871 872 873 874 875 875 876 876 877 878 878 879 880 881 881 882 883 883 884 884 885 885 886 886 887 887 888 888 888 888 888 888 888 888 888 888 889 888 889 889 888 888 888 888 887 888 888 888 888 887 887 887 887 887 887 887 886 886 885
826 829 831 833 835 837 839 841 842 844 846 849 851 853 855 856 859 860 862 864 865 866 867 867 868 869 870 871 872 873 874 875 876 876 877 877 878 879 880 880 881 882 882 883 884 884 885 885 886 887 887 887 888 888 888 888 888 888 888 889 889 888 889 888 888 888 888 887 887 887 887 887 887 887 887 887 887 887 887 887 886 886 886 885 885
825 828 830 832 834 835 837 839 841 843 845 847 850 852 854 856 858 860 862 863 864 865 866 867 868 869 870 870 871 872 873 874 875 876 877 877 878 879 880 880 881 881 882 883 884 884 885 885 886 887 887 887 888 888 888 888 889 889 889 889 889 889 891 890 887 887 887 887 887 887 887 887 887 887 886 886 887 887 886 886 886 886 885 885 884
824 826 828 830 832 833 835 837 839 841 844 846 849 851 853 855 857 859 861 862 863 864 865 866 867 868 869 870 871 872 873 874 875 876 876 877 878 879 879 880 881 881 882 883 884 884 885 886 886 887 887 887 888 888 888 889 889 889 890 890 890 892 893 890 888 888 887 886 887 886 886 886 886 886 886 886 886 886 886 886 885 885 885 884 884
821 824 826 828 830 832 833 835 838 840 842 845 847 850 852 854 855 857 859 860 861 863 863 865 866 867 869 869 870 871 872 873 874 875 876 877 878 879 879 880 881 881 882 883 884 884 885 886 886 887 887 888 888 888 889 889 890 890 890 890 892 893 892 890 890 890 887 886 886 886 886 885 885 885 885 885 885 885 885 885 885 884 884 884 883
819 822 824 827 828 830 832 834 836 838 840 843 845 848 850 852 854 855 857 859 860 861 862 864 865 867 868 869 870 871 872 873 874 875 876 877 878 878 879 880 881 881 882 883 883 884 885 886 886 887 887 888 888 888 889 889 890 890 891 891 891 892 892 891 891 892 891 889 886 886 886 885 885 884 884 885 885 885 885 884 884 884 883 883 883
817 820 822 825 827 829 830 832 835 837 839 841 844 846 848 850 852 854 856 858 859 860 862 863 864 866 867 868 869 870 871 872 873 874 875 876 877 878 879 880 880 881 882 882 883 884 885 885 886 887 887 888 888 889 889 890 890 890 891 891 891 891 891 891 891 891 892 891 888 885 885 885 884 884 884 884 884 884 884 884 884 883 883 883 882
815 818 820 822 825 827 829 831 833 836 838 840 842 844 847 849 851 853 854 856 858 860 861 863 864 865 866 867 868 869 870 871 872 873 874 875 876 877 878 879 880 881 882 882 883 884 884 885 886 886 887 888 888 889 889 890 890 890 890 891 891 891 891 891 891 891 891 891 890 886 885 885 884 884 884 884 884 884 884 883 883 883 882 882 882
812 815 818 820 823 825 827 830 832 834 836 838 841 843 845 847 849 851 853 855 857 859 860 862 863 864 865 866 867 868 869 871 872 873 873 874 876 877 878 879 880 880 881 882 883 883 884 885 885 886 887 887 888 888 889 889 889 890 890 890 890 891 890 890 890 890 890 891 890 886 885 885 884 884 885 884 884 884 883 883 883 883 882 882 881
810 813 816 818 821 823 825 828 830 832 835 837 839 842 844 846 848 850 852 853 855 857 859 861 862 863 864 865 867 868 869 870 871 872 873 874 875 876 877 879 879 880 881 881 882 883 884 885 885 886 886 887 887 888 888 889 889 889 890 890 890 890 890 890 890 890 890 889 889 887 885 885 885 885 885 884 884 884 883 883 883 883 882 882 881
Wind_Speed
12 14 17 17 17 17 19 19 20 22 21 19 19 19 18 17 15 13 12 12 11 11 11 10 9 8 8 8 8 8 7 7 7 8 8 8 8 9 9 9 9 10 10 11 12 13 13 12 12 12 12 13 14 14 15 15 15 16 16 16 16 16 16 16 15 15 15 15 15 16 15 15 16 16 17 18 19 20 20 21 19 18 19 18 18
14 14 17 17 17 16 18 18 19 21 20 20 19 19 18 16 14 13 13 12 11 11 10 9 9 9 9 9 8 8 8 8 8 8 8 8 8 9 9 10 10 10 10 10 11 12 12 12 11 11 12 12 13 14 14 14 15 16 16 16 16 15 15 15 15 15 15 15 16 15 15 14 15 16 18 18 19 20 20 21 19 17 18 18 17
16 15 16 17 17 16 17 18 18 19 19 19 19 18 18 16 15 14 13 12 10 10 9 9 9 9 9 9 9 9 9 8 8 8 8 8 8 8 9 10 9 9 9 10 11 12 12 12 11 12 12 13 13 13 14 14 14 15 15 16 15 15 15 14 14 15 15 16 16 16 15 14 15 16 18 18 19 20 20 21 19 18 18 17 16
18 16 16 18 18 18 17 17 18 19 20 19 18 17 17 16 14 13 12 11 10 10 9 9 9 9 9 9 9 9 9 8 8 8 8 8 8 8 8 9 8 8 9 10 12 12 12 12 12 13 13 13 13 12 14 14 13 14 15 15 15 15 14 14 14 14 14 16 17 16 15 14 15 17 18 18 19 20 20 20 19 18 18 16 15
19 17 18 19 19 19 18 17 19 20 20 19 18 17 16 15 14 13 12 11 11 10 9 9 9 9 9 8 9 9 9 9 8 8 7 8 8 7 8 8 8 8 9 12 14 11 9 11 13 13 13 13 13 13 14 13 13 14 14 14 14 14 14 14 13 13 14 16 17 16 16 15 15 16 17 17 18 19 20 19 18 18 17 15 15
20 18 18 20 18 19 19 18 19 19 19 18 17 16 15 14 13 13 12 11 11 10 9 8 8 8 8 8 8 7 8 8 8 8 7 6 7 7 8 7 7 8 10 14 14 8 8 11 13 12 12 12 12 13 13 13 12 13 13 13 14 14 14 14 14 14 15 17 17 16 16 15 16 16 16 17 18 19 19 19 18 17 16 15 14
19 18 17 19 18 18 19 17 18 18 18 17 16 15 14 13 13 13 12 11 11 10 9 8 8 8 7 7 7 6 7 8 9 8 8 7 7 8 8 8 7 8 12 16 13 8 8 11 12 11 12 12 12 12 12 13 12 12 13 13 14 14 14 14 15 15 16 17 17 15 15 15 17 17 17 17 18 18 18 18 17 16 16 14 13
19 18 18 19 18 19 19 17 17 17 16 16 15 14 14 13 13 13 12 11 10 9 8 8 8 8 7 6 6 6 7 9 9 9 9 9 8 8 9 9 9 10 14 16 13 9 8 10 10 11 11 12 13 12 12 13 13 13 14 13 13 14 15 15 16 16 18 18 18 16 15 15 16 17 17 17 17 18 18 17 16 16 15 13 13
19 18 19 19 18 19 18 17 17 16 16 15 15 14 14 14 14 13 12 11 10 9 8 8 8 6 6 6 6 7 9 10 9 9 10 10 9 9 10 10 10 12 14 16 13 9 9 10 10 11 11 12 13 12 12 13 13 14 15 14 13 15 16 16 17 18 19 18 18 17 16 15 15 15 15 16 16 17 17 16 15 15 14 13 13
20 17 18 18 18 18 17 16 16 16 15 15 14 14 14 14 13 12 12 11 10 10 8 7 6 4 5 6 6 8 10 10 10 11 11 11 10 10 11 11 11 12 14 16 14 10 9 10 11 11 11 11 12 13 13 13 13 15 16 15 14 16 17 17 17 17 17 17 17 16 15 15 15 15 15 16 16 16 16 15 14 14 14 13 13
19 17 17 18 18 17 16 16 16 16 15 15 14 14 14 14 12 11 11 11 11 10 9 7 6 3 4 6 6 8 10 11 11 11 12 11 11 10 11 12 12 12 13 15 13 11 10 11 11 11 11 11 11 12 12 13 14 15 16 16 16 16 17 17 17 16 16 16 16 15 14 15 15 15 16 15 16 16 15 15 14 14 13 13 14
17 17 17 17 17 16 16 16 16 15 14 14 14 14 14 13 12 11 10 11 11 11 10 9 7 3 3 6 7 8 11 12 12 13 12 12 11 11 12 13 13 13 13 13 12 11 11 11 11 11 12 12 11 12 12 13 15 16 16 16 16 16 17 17 16 16 16 15 15 15 14 15 16 16 16 15 15 15 15 14 14 14 13 13 13
17 17 17 16 16 16 16 16 15 14 14 13 13 13 13 12 11 10 10 10 11 11 11 10 8 4 4 6 8 9 11 12 13 13 13 12 12 12 12 13 14 15 14 13 13 13 13 12 12 12 12 12 12 12 13 13 15 16 16 15 16 16 16 16 16 15 15 15 14 15 15 16 16 16 15 15 15 14 14 14 14 13 13 13 13
18 18 17 16 17 17 16 15 13 13 13 12 12 12 12 11 10 10 10 10 10 11 12 11 9 6 5 7 9 10 10 11 12 12 12 13 13 13 13 14 15 15 13 13 14 15 16 14 12 12 13 13 14 14 13 14 15 16 16 15 15 15 15 15 15 14 14 14 14 15 16 16 15 15 15 15 14 14 14 14 13 13 13 13 13
17 18 17 17 17 17 16 14 12 12 12 11 11 11 11 11 10 10 10 10 10 11 12 12 11 9 6 7 9 10 10 11 12 12 12 13 13 13 14 14 16 17 14 13 14 15 16 15 13 12 13 13 14 13 13 14 15 15 15 14 14 14 14 13 13 14 14 14 14 15 15 15 15 14 14 14 14 14 14 13 13 13 13 12 13
17 17 17 16 16 16 15 13 11 11 11 10 10 10 10 10 9 9 10 9 9 11 12 12 13 11 8 7 9 10 10 11 12 12 12 12 13 14 14 15 17 19 18 16 14 13 14 14 14 14 14 14 14 13 13 14 14 15 14 13 13 13 13 13 14 14 14 14 15 15 15 14 14 14 13 13 13 13 13 13 13 13 12 12 13
16 16 15 14 14 15 13 11 10 10 10 10 10 10 9 9 9 9 9 9 9 11 13 13 13 12 9 8 9 10 10 11 12 12 12 12 12 14 14 15 16 19 20 19 15 12 12 13 15 16 15 15 15 15 14 14 15 15 13 12 13 13 14 14 14 14 14 15 14 14 14 13 13 13 12 12 12 12 12 12 12 12 12 12 12
15 15 14 13 13 13 12 11 10 9 10 10 10 10 9 9 9 9 9 9 10 11 13 13 13 12 10 10 10 10 11 11 11 11 12 12 12 14 14 14 16 18 19 20 19 15 13 13 15 17 16 16 16 15 15 15 15 14 13 13 13 14 14 14 14 14 15 15 14 13 13 13 12 11 11 11 11 11 11 12 12 11 12 12 12
14 14 14 13 13 12 11 10 9 9 10 10 10 9 9 9 9 9 9 10 11 11 12 13 13 13 13 12 10 10 12 12 11 11 11 11 11 13 14 14 16 17 18 19 20 18 15 13 14 16 16 16 16 15 16 15 14 13 13 13 14 15 14 14 14 14 14 13 12 12 12 12 11 10 10 10 10 11 10 10 11 11 11 11 11
13 13 13 13 11 11 11 10 9 9 10 11 10 10 9 9 9 9 9 10 11 11 11 12 13 14 15 13 11 10 11 11 12 12 12 11 12 13 13 14 16 16 17 18 19 19 18 15 14 14 15 17 16 15 15 14 14 13 13 13 14 15 13 13 13 13 12 12 12 12 12 11 10 10 9 9 10 10 10 9 9 10 10 10 10
13 13 12 12 10 11 10 9 10 9 10 11 10 10 9 9 9 9 10 11 11 10 11 12 13 14 15 15 13 11 10 10 12 12 13 13 13 13 13 15 16 15 16 18 18 19 19 17 16 14 14 15 14 14 15 14 13 12 12 13 13 13 12 12 11 11 11 11 11 11 10 10 9 8 9 9 10 9 8 8 8 9 9 9 9
13 13 12 11 11 10 10 10 10 10 11 10 9 10 10 8 8 9 10 11 10 10 11 11 12 13 14 15 15 13 11 10 11 12 13 14 14 13 14 16 14 13 14 16 18 19 19 18 17 16 15 14 13 14 14 13 12 12 12 12 11 10 10 10 10 10 10 10 10 10 9 8 8 8 8 8 9 8 7 7 7 8 8 8 8
14 13 11 11 11 10 10 10 10 10 11 10 9 10 10 8 8 9 10 10 10 10 10 11 11 12 13 14 14 14 13 12 12 11 13 13 13 14 16 15 12 11 13 14 16 18 19 18 16 16 16 14 13 14 12 12 11 11 11 10 10 9 8 8 9 9 9 9 9 8 8 7 7 7 8 7 7 7 6 6 6 7 7 7 7
15 13 11 11 11 11 10 11 10 11 11 9 9 10 9 8 9 9 9 9 10 9 10 10 11 11 12 12 12 13 13 13 13 13 13 13 12 14 15 15 12 10 12 13 14 17 18 17 15 14 14 14 13 13 12 11 10 10 10 9 9 8 8 7 7 7 8 8 7 7 7 6 6 7 7 6 6 6 5 5 6 7 7 6 6
14 12 11 11 11 11 10 11 11 10 10 9 9 9 9 8 9 9 8 9 9 9 9 10 10 10 11 11 10 11 11 11 12 12 12 12 13 13 13 14 14 12 12 12 12 13 13 12 13 13 13 13 13 12 12 11 10 10 9 9 9 8 7 7 7 6 6 7 6 6 6 5 6 6 6 5 5 4 4 5 6 6 6 6 6
14 12 11 11 12 11 11 11 11 10 9 9 9 9 9 8 8 8 8 8 8 8 9 9 10 9 10 10 10 10 10 10 11 11 11 11 12 12 12 13 13 12 12 12 11 11 10 9 10 11 11 11 11 11 11 11 10 10 10 9 8 7 7 6 6 5 5 6 5 5 5 5 5 5 5 4 4 3 4 5 5 5 5 5 5
14 12 12 12 12 11 11 10 10 10 9 9 9 9 9 8 8 8 8 8 8 8 9 9 9 9 8 9 9 9 9 9 10 10 10 11 11 12 12 12 12 12 11 11 10 10 8 8 8 9 9 9 9 10 10 10 10 9 9 9 7 6 5 5 5 5 5 5 4 3 4 4 4 4 4 4 3 3 4 4 4 4 5 5 5
13 13 13 12 12 11 11 11 11 10 10 10 9 9 10 9 8 8 7 8 8 9 9 9 9 8 8 8 8 8 9 9 9 10 10 11 11 12 12 11 11 10 10 9 9 8 7 7 7 7 8 8 8 8 8 8 9 8 8 8 7 6 5 4 4 4 4 4 4 2 2 2 2 2 2 3 3 3 4 4 4 4 5 5 4
13 14 14 13 12 12 11 11 11 11 10 10 9 9 10 9 8 8 7 8 8 8 8 9 9 8 8 7 7 8 8 8 8 9 10 10 11 11 10 10 9 9 8 8 7 7 7 6 6 6 6 6 7 7 6 6 7 7 7 7 6 6 5 4 3 4 4 4 4 2 1 1 1 1 1 2 3 3 4 4 5 5 4 4 3
14 14 14 13 13 12 12 11 11 11 11 10 9 8 9 9 8 8 8 8 8 8 8 8 8 8 7 7 7 8 8 7 8 9 9 9 9 9 8 8 7 7 7 6 6 7 7 6 6 6 6 6 6 6 5 5 5 5 5 5 5 5 5 4 4 4 4 3 4 3 2 2 1 1 1 2 3 3 4 4 4 4 3 3 3
14 15 14 13 13 13 12 12 11 11 11 10 10 9 8 9 9 8 8 8 8 8 8 7 7 7 7 7 7 7 7 7 7 8 8 7 7 6 6 6 6 6 6 6 6 7 7 7 6 6 7 7 7 6 5 4 4 4 4 4 4 4 4 4 3 3 3 3 3 3 2 2 2 2 2 2 2 2 3 3 2 2 2 2 2
16 16 15 13 13 13 13 12 11 11 11 10 10 9 8 8 9 9 8 8 8 8 7 7 7 7 7 7 7 7 7 7 6 6 6 5 4 4 4 4 5 5 5 6 6 7 7 7 7 6 7 8 7 7 6 4 3 3 3 3 4 4 4 4 3 2 2 2 2 2 2 2 2 3 3 2 3 3 3 2 1 1 1 2 2
16 17 15 14 14 14 13 13 12 12 11 10 9 9 8 8 9 9 8 8 8 7 7 7 6 6 7 7 7 7 6 6 5 5 4 3 3 3 3 3 4 4 4 5 6 6 7 7 6 6 7 7 6 6 5 4 3 3 2 3 3 3 4 4 3 2 2 1 1 1 1 1 2 2 3 3 3 3 3 2 2 2 2 2 2
15 17 16 16 15 14 14 13 13 13 12 11 9 9 9 8 8 9 9 9 8 7 6 6 6 6 6 6 6 5 5 5 5 4 3 2 2 2 2 2 2 3 4 4 5 5 6 6 5 5 6 5 5 4 4 3 3 3 2 2 2 3 4 3 2 3 3 2 1 2 2 2 2 2 3 4 5 4 3 3 3 3 3 4 3
16 17 18 17 16 14 14 13 14 14 12 12 10 9 9 9 9 8 9 9 8 7 6 6 5 5 5 4 4 4 4 4 3 3 3 2 1 1 1 1 2 2 3 3 4 4 4 4 4 4 4 4 4 3 3 3 3 2 2 2 2 3 3 3 3 3 3 3 2 2 2 3 3 3 3 4 4 4 4 4 4 4 4 4 4
17 17 18 18 17 15 14 14 15 15 13 12 11 10 9 9 9 8 8 8 8 7 6 5 5 5 4 4 4 3 3 2 1 2 2 1 1 1 1 1 1 2 2 2 3 3 3 4 4 4 4 3 3 3 3 3 2 2 3 3 2 3 3 2 3 2 2 3 3 3 4 4 4 4 4 4 4 5 5 5 5 5 5 5 5
18 18 18 19 18 17 15 14 16 17 15 12 11 10 10 9 10 10 9 9 8 7 7 6 5 5 4 4 4 3 3 2 1 1 0 1 1 1 1 1 0 1 0 1 2 2 2 3 3 3 4 4 3 4 3 2 2 2 2 2 2 3 3 3 2 2 3 4 3 3 3 4 5 5 5 4 5 6 6 6 6 6 6 6 6
19 19 19 20 19 17 16 15 17 18 16 14 11 10 10 9 10 11 11 10 8 7 7 7 6 5 5 5 4 4 3 3 3 2 1 1 1 2 2 2 2 1 1 1 0 1 1 1 2 3 3 4 4 4 4 2 1 1 2 2 3 4 3 3 3 3 4 4 3 3 3 3 4 4 4 4 5 6 6 7 7 6 6 6 7
19 19 20 20 19 18 17 17 18 18 15 14 13 11 10 10 9 10 12 11 10 9 8 8 7 6 6 6 5 4 4 3 3 3 3 3 2 2 3 3 3 2 2 1 0 0 0 1 2 2 2 3 4 4 4 3 2 2 2 2 3 4 4 4 4 4 4 4 4 4 3 4 4 4 5 5 5 5 6 7 7 7 6 6 6
19 20 20 20 21 19 18 19 20 19 15 13 13 13 12 11 10 10 11 12 11 10 10 9 8 7 7 7 6 5 4 4 4 4 4 4 4 3 4 4 3 3 3 1 1 1 1 1 2 2 1 2 3 4 4 3 2 1 2 2 3 4 4 5 4 4 4 4 4 4 3 3 5 5 5 6 6 6 7 7 7 7 7 7 6
19 20 21 21 22 22 21 20 20 19 16 14 15 15 14 12 11 11 11 11 12 12 11 10 9 9 9 8 7 6 5 5 5 5 4 4 4 4 5 4 3 3 3 2 1 2 2 2 1 1 0 1 2 3 3 2 1 1 1 1 2 3 3 4 3 3 3 3 4 5 4 3 4 5 7 7 7 7 7 7 7 7 7 7 7
19 21 22 22 23 23 23 22 21 20 18 17 18 18 16 14 11 11 11 10 12 12 10 10 10 9 10 9 8 8 7 6 6 5 5 5 5 5 5 4 3 3 2 2 2 2 2 2 1 0 0 1 1 2 1 2 2 2 2 1 2 3 3 3 3 2 2 2 3 4 5 4 3 4 7 9 9 8 7 7 8 7 7 7 7
21 22 22 22 22 23 23 23 23 22 21 21 22 20 19 17 13 13 13 10 11 12 10 11 11 10 10 10 9 9 7 7 6 6 5 5 5 5 5 3 2 2 2 1 2 2 3 2 2 1 1 2 1 1 1 2 2 2 2 2 3 2 4 4 5 3 3 3 2 3 5 5 4 5 8 9 9 9 8 7 7 7 6 7 8
20 21 21 21 21 23 25 26 26 25 24 23 23 22 20 19 16 15 14 12 12 13 12 12 12 11 11 10 9 7 7 7 7 6 5 5 5 5 4 3 2 2 2 1 2 3 4 3 2 2 2 2 1 0 2 3 2 2 3 2 2 1 3 5 6 4 5 4 3 4 6 6 5 6 7 7 7 8 8 7 7 7 7 7 8
21 21 22 22 22 23 27 29 28 27 26 24 23 23 21 19 17 15 14 13 12 12 12 11 12 12 10 9 9 6 6 7 7 6 6 6 5 4 4 3 2 2 2 2 2 4 4 3 2 2 2 2 2 1 2 3 3 3 4 2 2 2 3 6 5 3 6 6 5 6 7 7 5 6 7 6 6 7 7 7 7 7 7 8 8
21 22 22 23 22 23 27 29 28 28 27 26 24 24 22 20 19 17 13 13 12 12 13 12 11 11 9 8 8 7 7 7 8 7 7 7 6 4 4 3 3 3 2 2 3 4 4 4 3 2 2 3 2 2 2 3 2 1 3 3 3 2 3 6 4 3 5 5 6 7 8 9 7 6 8 8 8 8 7 7 7 8 8 8 9
22 22 22 22 22 24 28 30 29 29 28 27 26 24 24 23 22 19 15 14 12 13 17 15 13 12 10 9 9 8 7 7 8 8 7 7 7 5 4 3 4 4 3 3 3 4 4 4 4 4 3 4 3 2 2 2 1 0 1 2 2 3 3 4 3 4 4 3 7 8 8 10 8 7 8 8 8 9 8 8 8 8 8 8 9
22 22 22 22 23 25 29 30 30 30 29 29 27 26 26 25 24 20 17 17 14 15 19 18 15 14 12 10 10 10 9 7 7 8 8 8 8 6 4 4 5 5 4 3 3 4 5 5 5 5 5 4 4 3 2 2 1 0 1 1 2 3 3 3 3 4 3 3 6 7 9 11 8 7 9 9 8 9 9 8 8 8 8 8 8
23 23 23 23 24 27 30 30 30 30 30 30 29 27 27 26 25 22 20 20 18 17 19 18 17 16 14 13 12 12 10 7 7 9 9 9 8 7 6 5 5 6 5 4 4 4 4 5 5 5 5 4 4 4 3 2 2 1 1 2 2 3 2 2 3 2 1 2 4 6 9 10 8 9 11 9 8 9 9 8 8 7 7 7 8
23 24 24 23 23 25 28 29 30 30 30 30 30 29 28 27 26 25 23 23 22 20 19 18 18 17 15 15 14 13 10 7 8 8 9 9 9 8 7 6 6 6 6 4 4 4 5 5 5 5 5 5 5 4 3 3 2 1 1 2 2 3 2 2 3 2 1 1 3 5 7 8 7 8 10 10 9 9 9 8 8 8 8 7 7
23 23 23 22 23 24 26 29 30 30 30 31 31 30 30 28 27 27 25 25 24 22 20 19 19 18 17 16 15 13 9 7 8 8 8 9 10 10 9 7 7 6 6 5 4 4 4 5 5 6 6 6 6 5 3 3 3 2 1 1 2 3 2 1 3 3 2 2 3 5 6 6 6 6 9 10 9 8 8 8 8 8 9 9 8
Wind_Direction
135 134 134 136 131 129 130 132 135 137 135 135 136 135 133 132 130 129 132 125 120 117 115 115 112 110 107 105 102 98 94 90 86 84 87 92 95 95 95 99 101 102 101 101 104 104 101 100 101 102 101 100 101 102 104 104 106 104 103 104 100 98 99 99 98 98 98 97 96 97 97 97 100 101 101 102 102 101 97 94 95 93 94 95 95
139 136 136 134 130 129 129 131 137 138 136 134 135 135 131 129 128 128 130 124 122 120 118 118 117 117 113 110 105 102 99 96 94 90 89 89 90 91 92 97 100 102 104 103 104 104 102 100 101 101 103 104 103 103 105 105 105 104 102 103 100 99 101 100 99 100 99 96 96 97 96 96 99 101 102 103 102 101 97 96 96 94 96 96 94
137 135 136 136 133 132 129 129 132 133 132 133 134 132 129 128 131 131 128 124 122 124 123 122 120 116 112 108 104 100 97 95 95 95 97 96 94 95 96 98 101 104 106 107 104 103 104 107 109 107 107 106 104 105 106 106 104 105 104 102 99 97 98 96 98 100 100 99 98 98 97 96 98 100 103 104 104 101 98 97 96 98 99 95 92
137 135 137 140 135 133 132 131 131 131 131 131 130 129 130 131 133 129 125 124 125 128 127 124 119 113 110 108 105 100 97 96 95 96 98 100 100 100 101 99 99 101 104 105 98 95 105 116 116 112 109 105 104 105 104 102 100 101 102 101 100 100 99 95 98 102 105 106 102 100 99 96 96 99 102 104 105 102 98 96 96 98 98 94 90
138 137 138 140 137 135 135 134 133 133 132 130 131 131 132 133 130 126 125 126 127 128 125 120 116 111 110 109 107 104 102 99 97 98 97 97 96 95 98 97 96 102 99 94 89 90 110 116 113 112 110 105 102 103 102 100 100 99 100 101 103 103 102 99 100 104 109 109 105 103 100 97 96 98 102 104 105 103 98 96 95 96 96 93 89
140 138 138 140 140 139 138 138 135 133 132 132 134 134 133 132 130 127 127 126 125 123 120 118 115 111 111 109 106 103 103 102 96 93 94 94 89 89 94 93 98 104 95 90 94 108 120 108 106 110 107 105 101 105 106 103 102 102 102 103 104 102 100 101 103 107 110 107 103 101 98 97 97 98 102 104 105 102 97 95 94 95 95 92 88
140 139 140 140 141 141 141 141 137 134 133 134 135 134 133 133 131 129 127 124 123 121 119 117 112 109 109 103 99 101 103 97 91 89 91 90 88 92 95 93 94 94 89 91 102 117 109 97 103 107 105 106 102 105 110 106 103 104 104 103 103 101 100 102 105 109 108 104 100 97 96 96 96 99 102 103 103 99 95 94 93 95 94 91 87
142 140 141 141 142 141 142 141 138 137 134 133 134 135 135 133 131 130 128 124 123 121 118 113 109 108 103 93 91 99 99 91 88 91 92 90 92 94 92 90 87 84 84 91 102 109 99 95 102 106 106 108 107 108 109 107 106 106 106 104 103 103 103 105 108 109 104 102 102 99 98 96 96 98 100 101 100 96 93 91 91 93 93 90 85
144 142 141 141 142 139 139 139 137 137 136 135 137 138 137 133 133 132 129 127 123 116 112 105 105 107 103 96 89 93 94 90 88 87 92 94 92 90 85 82 80 78 83 89 97 100 97 98 100 103 105 108 111 110 108 107 107 109 109 107 108 109 108 109 110 107 102 101 100 99 98 97 97 97 98 97 95 93 91 88 89 91 91 87 81
143 142 141 140 141 139 138 137 136 138 139 140 141 141 136 134 135 134 132 127 118 111 107 99 100 103 99 94 84 85 89 89 87 86 92 96 92 90 89 84 78 77 84 90 93 93 93 98 100 104 106 109 111 109 110 110 109 111 111 110 112 113 113 114 112 106 103 101 99 99 99 95 95 97 96 94 93 91 90 90 92 91 90 84 78
142 142 140 140 140 137 137 136 138 142 143 142 140 138 135 135 136 134 130 120 112 107 102 96 94 87 85 86 78 78 84 86 88 91 94 94 93 93 91 88 86 82 80 85 90 95 97 99 101 104 107 108 108 107 108 109 110 112 112 113 114 115 118 119 113 107 106 102 100 98 94 92 94 96 96 94 92 90 90 92 93 91 87 81 77
143 142 140 138 138 137 138 139 141 144 142 140 137 137 135 136 136 130 124 114 110 105 99 96 92 82 77 84 81 74 78 83 85 89 92 93 94 91 87 87 89 86 81 83 88 93 93 94 97 102 105 106 107 108 109 109 112 114 113 114 115 118 121 120 113 109 105 101 98 94 89 92 96 96 95 93 92 92 94 94 91 88 83 78 75
144 144 142 138 139 140 141 142 143 143 140 138 136 137 135 134 132 127 120 112 109 105 102 100 98 94 80 82 79 72 75 81 84 87 89 93 95 91 88 87 86 85 88 93 91 89 86 84 89 95 100 103 104 106 108 108 111 114 114 114 114 116 119 117 111 107 102 97 94 91 89 92 95 94 93 92 94 95 95 92 89 85 80 76 72
146 146 146 143 144 144 145 145 144 143 139 137 136 134 131 129 127 124 118 111 109 109 108 106 106 100 79 74 72 72 73 76 83 87 88 91 95 94 92 90 88 84 83 86 86 88 89 87 88 91 95 99 103 105 107 108 111 114 114 114 113 115 116 111 107 104 98 94 91 90 90 90 92 92 93 96 97 96 93 90 87 83 79 76 73
148 150 150 150 149 147 147 145 145 144 137 134 135 133 129 126 124 121 116 113 113 112 111 111 111 103 85 76 73 75 74 75 80 85 88 90 94 97 94 92 94 91 82 73 71 77 84 88 92 94 95 97 103 107 108 110 114 115 114 113 114 117 114 106 105 101 95 94 91 89 89 91 93 94 97 98 96 94 91 89 85 82 79 77 75
149 152 152 152 151 147 146 143 145 141 133 134 135 132 128 125 121 119 116 117 116 111 111 112 108 103 96 85 83 83 80 78 78 81 87 89 93 96 96 95 97 97 93 83 72 71 78 86 93 95 95 97 99 100 103 108 112 114 113 111 115 118 114 107 103 98 96 96 92 89 91 93 97 100 99 97 95 94 91 88 85 82 79 76 74
150 152 151 151 149 146 144 139 142 137 134 137 136 132 127 125 120 116 116 117 113 110 111 107 102 103 104 93 87 86 83 80 77 80 86 90 92 92 95 96 96 97 98 97 90 81 80 87 95 96 94 97 97 95 99 104 107 108 109 111 113 116 113 107 99 97 100 98 94 94 95 100 103 102 99 97 96 95 94 91 87 83 80 77 74
150 151 150 150 148 144 141 139 141 141 139 137 134 132 128 125 119 115 115 116 112 108 106 102 101 104 100 92 88 88 86 82 79 80 83 88 92 93 94 96 96 96 97 100 98 91 84 87 95 96 95 97 96 97 100 101 102 103 104 108 110 114 113 105 98 101 102 98 97 96 100 106 105 100 98 97 94 92 92 91 88 85 82 79 76
152 150 150 148 147 145 143 143 146 146 141 137 136 132 126 124 118 115 115 115 111 105 104 103 105 103 96 93 90 87 87 86 83 81 81 85 90 91 93 91 90 91 94 98 99 99 95 89 89 90 94 99 98 97 99 100 101 103 106 110 112 116 113 102 100 102 100 99 98 99 105 107 102 97 94 92 92 91 88 87 88 87 85 83 79
154 151 151 149 149 150 147 147 150 149 142 140 137 130 125 123 118 116 116 112 109 109 107 103 102 102 101 99 92 84 86 90 88 87 88 90 90 86 89 90 87 87 90 94 97 100 101 98 92 89 92 99 102 101 101 104 106 108 111 115 119 119 112 103 101 98 97 99 99 103 108 104 100 97 95 91 88 87 85 84 85 85 87 86 82
157 155 154 153 154 152 150 152 154 152 146 142 135 130 128 124 121 120 118 114 113 114 109 102 102 103 105 105 101 95 89 89 87 90 94 96 94 90 93 92 88 87 88 92 94 95 98 100 100 96 92 98 106 108 107 106 105 107 108 113 118 115 108 104 100 96 98 99 100 107 107 100 97 94 93 91 86 84 83 80 77 79 84 85 82
160 159 159 159 158 155 158 160 156 155 150 142 136 135 133 128 129 126 121 120 120 118 111 105 104 104 107 108 108 106 98 90 84 83 86 89 92 92 89 85 84 86 86 90 93 94 95 99 102 98 96 100 102 100 99 98 95 97 99 102 105 105 104 102 98 98 100 97 100 107 105 97 94 89 87 84 83 84 81 81 76 76 80 81 80
162 162 163 163 161 160 167 166 157 158 153 144 141 138 136 133 133 130 125 124 122 118 110 105 105 105 107 108 110 111 108 103 98 91 85 86 89 90 89 86 83 81 78 79 87 94 94 94 97 98 98 97 91 86 88 90 90 90 90 92 95 99 103 100 98 99 99 95 100 108 105 100 96 92 90 85 82 81 80 81 75 73 74 73 75
165 163 164 166 166 165 171 168 159 161 155 147 146 140 138 139 136 133 127 124 121 117 109 105 105 105 106 108 110 112 112 109 108 106 104 103 101 101 102 101 95 83 76 72 76 86 88 87 88 92 94 92 88 87 91 97 98 96 95 97 99 102 103 102 102 102 101 100 103 105 99 96 91 88 90 86 80 78 77 71 67 70 70 67 66
167 165 166 167 169 168 172 169 161 162 158 152 151 146 143 143 142 137 131 128 124 119 112 106 106 106 108 109 111 111 110 109 109 109 110 111 108 108 109 109 108 103 99 92 86 86 87 87 84 84 87 91 94 95 99 105 108 105 103 105 106 108 108 107 107 103 100 98 101 97 88 87 83 86 92 87 81 75 66 61 61 66 66 63 57
169 168 167 168 170 170 171 168 164 164 161 161 157 151 150 150 149 142 136 133 128 123 115 112 112 112 111 110 111 109 106 106 106 105 104 106 107 108 109 112 115 115 114 113 110 105 101 95 87 84 85 91 95 95 98 103 108 106 103 104 108 112 113 114 115 110 99 89 93 93 86 81 76 84 88 85 82 64 51 52 55 60 61 55 46
170 169 166 168 171 172 172 169 168 167 166 168 160 155 157 154 154 148 142 136 131 126 119 117 117 116 114 111 110 106 103 104 103 103 103 106 106 106 109 111 113 113 113 112 111 110 107 101 95 90 90 93 92 89 90 94 101 102 98 94 96 103 110 118 117 113 106 89 82 84 85 77 68 76 79 76 73 51 42 43 46 51 52 46 36
168 168 168 170 172 174 174 173 173 171 170 171 165 161 161 158 158 153 147 142 134 128 123 121 120 117 116 114 110 105 104 104 104 104 105 105 104 104 106 107 108 108 108 105 103 102 99 97 94 87 85 88 87 87 86 83 87 93 91 83 82 85 91 105 111 105 102 91 77 63 77 87 78 77 70 63 56 40 34 35 37 36 38 35 25
169 170 172 173 173 174 177 177 178 177 174 172 170 168 164 160 161 155 151 149 137 132 128 122 120 119 117 114 110 107 106 106 107 106 106 108 107 106 104 104 103 102 100 96 94 91 89 89 85 80 74 75 78 79 80 77 79 84 83 78 75 73 73 79 88 88 85 83 78 56 49 75 55 48 47 40 36 33 30 28 28 26 28 26 13
171 174 176 176 176 175 179 180 180 182 178 174 175 171 166 165 163 159 156 154 145 137 131 125 124 122 118 115 111 111 109 106 109 108 107 110 108 105 101 98 95 95 93 85 82 80 79 79 80 79 70 70 73 68 71 76 78 78 76 75 73 70 68 66 71 78 75 74 75 58 44 52 33 24 28 16 18 21 25 28 26 22 24 18 7
173 177 180 180 180 179 180 181 182 185 181 178 180 174 171 170 165 162 160 159 153 142 134 129 128 125 120 118 113 112 111 108 110 108 108 107 101 95 91 89 86 89 86 76 75 74 72 71 75 78 72 72 70 62 64 71 72 70 68 70 68 66 62 60 65 75 77 72 77 74 54 59 64 58 55 44 39 28 24 29 24 11 10 9 1
178 181 183 183 183 182 182 183 184 187 184 181 182 177 178 176 168 165 164 163 158 146 139 136 131 129 124 122 117 113 112 110 109 106 107 105 97 90 82 82 84 85 77 73 77 73 66 65 70 71 69 69 64 56 55 60 66 61 66 66 61 58 51 53 62 71 78 68 65 75 55 41 45 43 44 52 59 51 38 40 22 347 353 357 351
180 182 183 185 185 183 182 184 186 188 187 184 183 181 182 180 173 170 167 168 165 154 148 145 140 136 130 125 122 118 114 110 108 103 101 95 92 94 79 75 84 79 70 75 79 69 63 62 64 61 56 55 56 51 47 55 58 51 67 63 48 44 37 43 54 56 67 70 39 22 4 6 11 11 7 11 26 34 26 22 9 357 356 352 349
177 181 184 186 186 184 184 185 187 188 187 186 186 185 185 183 178 174 173 173 173 166 159 155 148 143 140 133 127 125 119 113 110 101 92 80 66 79 76 76 91 80 68 73 74 64 61 61 61 56 47 49 53 48 49 53 43 42 55 49 32 22 23 35 46 47 51 51 26 359 338 333 341 344 348 352 1 5 352 343 344 343 339 335 336
176 180 185 186 186 186 186 187 188 187 187 189 189 189 188 187 183 177 178 179 181 178 170 165 160 157 153 148 144 138 131 119 111 102 92 76 47 43 59 77 98 85 71 71 65 60 62 62 61 53 43 51 53 48 50 41 27 33 33 30 22 4 14 32 37 40 42 34 19 354 339 332 329 326 333 334 331 335 333 328 328 326 320 318 318
179 180 182 184 187 189 189 189 189 187 186 190 192 192 191 191 189 185 183 183 185 187 183 178 177 178 176 178 173 161 158 145 121 101 85 63 28 7 12 46 97 92 81 69 58 55 62 61 57 46 39 44 49 48 37 18 13 17 20 24 11 359 9 19 24 29 18 16 6 349 350 349 342 335 336 327 311 316 328 329 326 322 319 315 314
183 181 180 181 185 189 192 192 193 193 190 189 190 193 195 196 196 197 195 192 191 194 195 192 193 197 201 204 198 197 204 202 215 224 46 350 314 291 286 288 333 89 131 80 61 60 69 60 42 34 40 38 37 39 26 13 20 20 29 31 14 8 6 359 0 2 355 357 352 338 340 347 352 350 338 321 314 320 329 334 332 327 326 326 325
185 183 181 180 182 186 190 193 197 198 196 193 193 193 196 199 201 205 206 203 202 202 202 202 204 211 218 220 221 230 237 239 240 243 260 284 288 268 265 265 261 246 219 197 88 65 77 61 19 12 37 44 31 26 28 45 70 63 63 45 19 15 5 0 7 8 357 346 337 329 329 340 349 351 344 328 323 332 337 338 338 335 334 336 335
186 185 184 182 181 182 187 197 202 200 197 200 199 195 199 202 203 210 213 213 211 208 208 210 212 216 225 230 234 247 258 265 258 251 254 265 273 267 266 261 250 232 219 205 196 351 14 342 353 351 17 43 31 20 35 63 86 78 65 44 19 16 10 7 10 10 359 336 327 324 319 332 342 343 346 344 337 342 348 342 338 338 340 341 339
186 185 185 184 184 183 187 198 205 203 197 198 198 197 199 201 203 209 215 217 215 213 212 214 218 222 228 234 239 249 265 274 263 250 246 255 263 263 264 262 248 224 221 219 220 252 264 276 311 336 358 32 25 14 25 53 72 68 61 42 14 10 15 18 14 4 355 338 331 330 314 315 337 344 341 342 340 341 350 350 344 343 346 349 348
186 185 185 187 189 188 190 195 202 203 196 193 194 195 194 194 200 206 210 214 214 215 216 217 222 226 230 235 241 249 261 270 260 243 241 250 254 252 255 257 244 221 216 223 231 236 232 240 274 321 14 49 20 2 3 16 26 43 44 51 37 27 32 31 21 348 328 323 329 339 341 323 327 345 349 350 350 349 351 355 356 352 352 353 353
186 187 187 189 190 191 193 194 199 201 197 197 199 198 197 195 195 202 206 210 215 216 218 222 222 228 235 238 245 254 259 263 255 241 241 251 253 251 252 246 230 216 211 222 228 228 218 204 186 154 131 124 52 336 332 351 5 28 14 35 78 84 83 46 12 339 309 303 317 334 348 344 328 343 356 2 5 5 360 358 3 1 356 354 352
188 190 190 189 188 189 192 196 201 203 202 206 206 204 205 204 203 208 209 210 217 218 220 225 225 233 243 247 256 261 256 252 249 244 245 256 257 252 251 242 224 217 216 223 223 218 205 187 168 155 159 153 123 324 349 23 22 31 5 30 57 84 98 41 10 21 0 328 329 341 350 350 344 353 2 6 7 7 5 4 7 7 2 359 356
190 190 190 189 189 190 195 200 204 206 207 209 209 208 209 209 212 218 219 220 223 223 225 230 232 238 248 255 261 257 246 244 246 245 245 255 257 249 246 242 231 217 211 221 219 214 203 189 174 162 177 181 175 86 81 46 43 42 13 40 35 51 86 19 4 30 21 16 26 7 360 352 343 357 6 5 1 1 1 1 1 1 2 1 359
191 191 191 191 192 193 199 203 205 207 208 209 208 209 210 209 211 216 219 221 223 223 224 228 232 237 244 254 258 248 235 239 240 240 243 249 250 245 244 241 240 226 217 223 209 203 199 192 184 178 195 198 191 154 103 59 70 67 32 51 47 56 55 1 357 19 12 29 36 10 6 1 342 351 8 12 7 3 358 353 351 352 354 355 354
194 194 193 195 195 194 199 203 205 207 208 209 207 207 209 209 208 206 205 207 209 211 214 215 221 229 233 241 253 250 235 235 237 235 236 241 242 240 239 234 238 235 229 229 211 203 201 200 196 193 206 197 186 171 137 82 77 84 35 46 35 26 0 347 356 357 356 22 20 10 12 4 358 11 24 26 20 16 8 358 354 350 348 347 346
196 195 195 196 195 195 200 203 205 206 207 208 207 206 209 211 211 208 205 206 205 210 214 214 218 227 233 239 249 251 241 234 236 236 233 235 235 235 237 231 230 230 229 225 212 204 202 205 203 199 207 197 185 189 173 126 70 306 348 14 3 355 339 343 352 345 345 355 359 10 17 9 13 33 37 36 30 28 24 17 8 359 354 350 346
196 194 194 196 196 199 203 204 205 207 206 207 207 206 208 212 213 211 212 214 213 216 217 218 222 227 234 241 246 251 250 239 235 238 234 232 232 233 237 233 226 225 225 222 212 207 202 208 211 204 208 202 192 199 198 206 247 224 12 346 351 359 353 352 351 341 331 324 345 8 14 14 30 47 43 42 37 33 28 22 17 9 3 357 350
195 193 194 196 198 202 204 203 205 207 207 208 206 206 209 213 214 213 215 219 219 221 220 222 226 227 232 239 246 250 251 241 236 237 233 232 232 231 234 231 228 226 222 221 214 209 205 209 216 212 211 209 203 206 206 225 248 236 347 340 345 352 356 20 13 357 319 318 343 1 3 8 29 42 37 35 33 30 26 25 28 24 15 6 356
195 194 194 196 196 199 201 202 205 206 207 208 207 207 209 213 216 216 217 219 220 221 222 225 228 229 232 237 244 248 245 235 231 232 229 230 228 226 229 226 227 229 223 221 218 214 214 214 217 218 216 216 211 210 213 229 254 268 312 334 339 343 1 38 28 22 14 302 321 344 1 6 15 27 23 22 29 31 31 37 41 36 25 16 3
193 192 192 194 194 196 198 201 204 206 207 208 208 208 209 212 216 217 217 218 219 219 220 223 226 229 230 233 240 243 238 228 227 227 223 226 226 223 223 221 222 226 224 222 218 214 214 214 217 219 221 223 218 218 225 235 253 266 298 343 342 351 8 21 15 7 357 359 333 340 7 6 2 14 11 13 26 30 33 38 39 36 29 22 12